Starlink 1234

operational
NORAD ID: 45190 Int'l Des: 2020-012 Owner: SPXS Country: US Constellation: starlink
LEOCIRCULARSTARLINK_TYPE

关于 Starlink 1234

正在加载描述...

实时位置

正在加载3D地球...

即将过境

高度历史

Altitude vs Time

uPlot chart will show altitude changes over time

两行轨道根数

1 45190U 20012N 25259.18124819 .00000813 00000-0 73440-4 0 9995
2 45190 53.0546 70.0160 0001245 86.1393 273.9738 15.06401534308997
Epoch: Sep 16, 2025 • Age: 7 hours

当前状态

高度 550.7 km
速度 7.59 km/s
星下点 43.19°N, 46.95°W
发射日期 Feb 17, 2020
运行时间 5.5 years
类型 internet

技术详情

分类 Payload
质量 260.00 kg
干质量 248.00 kg
总质量 260.00 kg
长度 0.20 m
直径 2.80 m
跨度 9.00 m
形状 Box + pan
制造商 SPXS
平台类型 Starlink
阶段状态 In Orbit
所有者/国家 SPXS/US

大型星座

Loading constellations...